Regional Weather Roundup
Issued by NWS

Home | Current Version | Previous Version | Graphics & Text | Print | Product List | Glossary On
Versions: 1 2 3 4 5 6 7 8 9 10 11 12 13 14 15 16 17 18 19 20 21 22 23 24 25 26 27 28 29 30 31 32 33 34 35 36 37 38 39 40 41 42 43 44 45 46 47 48 49 50
000
ASUS43 KLSX 241710
RWRMO

WEATHER SUMMARY FOR MISSOURI
NATIONAL WEATHER SERVICE SPRINGFIELD MO
1200 PM CDT SUN JUL 24 2016

NOTE: "FAIR" INDICATES FEW OR NO CLOUDS BELOW 12,000 FEET WITH NO
       SIGNIFICANT WEATHER AND/OR OBSTRUCTIONS TO VISIBILITY.
       CURRENT SKY AND/OR WEATHER CONDITIONS ARE NOT AVAILABLE FOR
       CHILLICOTHE AND FARMINGTON.

MOZ001>031-035>038-043-044-053-054-241800-
...NORTHERN AND WESTERN MISSOURI...

CITY           SKY/WX    TMP DP  RH WIND       PRES   REMARKS
KANSAS CTY INT MOSUNNY   92  75  57 VRB5      29.95R HX 103
KANSAS C DTWN  SUNNY     91  72  53 NW5       29.93R HX  98
LEE`S SUMMIT   SUNNY     93  71  48 VRB3      29.96R HX 100
ST JOSEPH      PTSUNNY   89  75  63 MISG      29.92S HX  99
CHILLICOTHE      N/A     93  73  52 W7        29.92S HX 102
KIRKSVILLE     PTSUNNY   91  73  55 W6        29.92S HX  99

$$
MOZ066>068-077>081-088>096-101>105-241800-
...SOUTHWEST MISSOURI...

CITY           SKY/WX    TMP DP  RH WIND       PRES   REMARKS
SPRINGFIELD    SUNNY     93  72  50 W7        30.01S HX 101
JOPLIN         SUNNY     91  75  59 VRB6      30.00S HX 101
BRANSON        MOSUNNY   90  73  58 NW7       30.04S HX  98

$$
MOZ032>034-039>042-045>050-055>058-069>072-241800-
...CENTRAL MISSOURI...

CITY           SKY/WX    TMP DP  RH WIND       PRES   REMARKS
COLUMBIA       SUNNY     92  76  59 SW10      29.96S HX 104
JEFFERSON CITY SUNNY     94  73  50 W8G18     29.94S HX 103
ROLLA          SUNNY     91  76  61 SW8       29.99S HX 103
SEDALIA        CLOUDY    91  76  61 W7        29.98R HX 103
WHITEMAN AFB   MOSUNNY   91  76  61 W7        29.95S HX 103
OSAGE BEACH    SUNNY     91  75  59 W6        29.99S HX 101

$$
MOZ051-052-059>065-241800-
...EAST CENTRAL MISSOURI...

CITY           SKY/WX    TMP DP  RH WIND       PRES   REMARKS
ST LOUIS INTL  MOSUNNY   95  76  53 S5        29.96F HX 108
SPIRIT OF STL  SUNNY     94  78  60 SW6       29.94F HX 110
ST CHARLES     SUNNY     91  80  70 S6        29.94F HX 109

$$
MOZ072>076-082>087-097>100-106>115-241800-
...SOUTH CENTRAL AND SOUTHEAST MISSOURI...

CITY           SKY/WX    TMP DP  RH WIND       PRES   REMARKS
CAPE GIRARDEAU MOSUNNY   89  76  65 S7        29.99S HX 100
FARMINGTON     SUNNY     91  78  65 S8        30.01S HX 106
POPLAR BLUFF   MOSUNNY   88  77  69 VRB7      29.99S HX 100
WEST PLAINS    SUNNY     91  73  55 SW6       30.04F HX  99

$$




USA.gov is the U.S. government's official web portal to all federal, state and local government web resources and services.